| time (UTC) | temp C | wind direction | speed KPH | gust KPH | rain 1hr cm | rain 24hr cm | rain mn cm | humidity % | barometer mb |
| 20260507212203 | 18 | 296 | 8.0 | 20.9 | 0.00 | 0.41 | 0.30 | 27 | 1005.2 |
| 20260507211704 | 18 | 331 | 8.0 | 20.9 | 0.00 | 0.41 | 0.30 | 27 | 1005.2 |
| 20260507211203 | 18 | 262 | 8.0 | 20.9 | 0.00 | 0.41 | 0.30 | 28 | 1005.2 |
| 20260507210703 | 19 | 327 | 6.4 | 17.7 | 0.00 | 0.41 | 0.30 | 27 | 1005.1 |
| 20260507210204 | 19 | 342 | 6.4 | 17.7 | 0.00 | 0.41 | 0.30 | 28 | 1005.1 |
| 20260507205703 | 19 | 335 | 4.8 | 17.7 | 0.00 | 0.41 | 0.30 | 27 | 1005.1 |
| 20260507204204 | 20 | 231 | 4.8 | 17.7 | 0.00 | 0.43 | 0.30 | 27 | 1005.0 |
| 20260507203703 | 20 | 290 | 4.8 | 17.7 | 0.00 | 0.43 | 0.30 | 28 | 1005.1 |
| 20260507202704 | 20 | 295 | 6.4 | 17.7 | 0.00 | 0.43 | 0.30 | 27 | 1005.1 |
| 20260507202203 | 20 | 304 | 6.4 | 17.7 | 0.00 | 0.43 | 0.30 | 27 | 1005.2 |
| 20260507201703 | 20 | 267 | 6.4 | 17.7 | 0.00 | 0.43 | 0.30 | 26 | 1005.1 |
| 20260507200203 | 20 | 36 | 4.8 | 19.3 | 0.00 | 0.43 | 0.30 | 26 | 1005.1 |
| 20260507195704 | 21 | 195 | 4.8 | 17.7 | 0.00 | 0.43 | 0.30 | 25 | 1005.3 |
| 20260507195200 | 20 | 254 | 6.4 | 20.9 | 0.00 | 0.46 | 0.30 | 26 | 1005.3 |
| 20260507194700 | 20 | 317 | 6.4 | 20.9 | 0.00 | 0.46 | 0.30 | 25 | 1005.4 |
| 20260507194201 | 20 | 355 | 6.4 | 17.7 | 0.00 | 0.46 | 0.30 | 25 | 1005.4 |
| 20260507193700 | 20 | 337 | 8.0 | 17.7 | 0.00 | 0.46 | 0.30 | 24 | 1005.5 |
| 20260507193159 | 20 | 335 | 8.0 | 24.1 | 0.00 | 0.46 | 0.30 | 24 | 1005.5 |
| 20260507192159 | 20 | 5 | 9.7 | 25.7 | 0.00 | 0.46 | 0.30 | 23 | 1005.6 |
| 20260507191700 | 20 | 330 | 6.4 | 25.7 | 0.00 | 0.48 | 0.30 | 24 | 1005.6 |
| 20260507191201 | 20 | 242 | 6.4 | 22.5 | 0.00 | 0.48 | 0.30 | 23 | 1005.5 |
| 20260507190700 | 20 | 273 | 8.0 | 20.9 | 0.00 | 0.48 | 0.30 | 23 | 1005.7 |
| 20260507190159 | 21 | 254 | 6.4 | 20.9 | 0.00 | 0.48 | 0.30 | 23 | 1005.7 |
| 20260507184657 | 20 | 331 | 6.4 | 19.3 | 0.00 | 0.48 | 0.30 | 24 | 1005.9 |
| 20260507184156 | 20 | 290 | 6.4 | 16.1 | 0.00 | 0.48 | 0.30 | 23 | 1005.9 |
| 20260507183659 | 20 | 355 | 9.7 | 22.5 | 0.00 | 0.48 | 0.30 | 24 | 1006.0 |
| 20260507183158 | 20 | 317 | 9.7 | 25.7 | 0.00 | 0.48 | 0.30 | 25 | 1005.8 |
| 20260507182657 | 20 | 211 | 8.0 | 25.7 | 0.00 | 0.48 | 0.30 | 25 | 1005.9 |
| 20260507182157 | 21 | 326 | 8.0 | 24.1 | 0.00 | 0.48 | 0.30 | 25 | 1005.9 |
| 20260507181158 | 21 | 286 | 6.4 | 22.5 | 0.00 | 0.48 | 0.30 | 26 | 1005.9 |
| 20260507180657 | 21 | 252 | 4.8 | 19.3 | 0.00 | 0.48 | 0.30 | 27 | 1006.2 |
| 20260507180158 | 21 | 293 | 6.4 | 22.5 | 0.00 | 0.48 | 0.30 | 28 | 1006.2 |
| 20260507175656 | 20 | 235 | 8.0 | 22.5 | 0.00 | 0.48 | 0.30 | 27 | 1006.3 |
| 20260507175157 | 21 | 325 | 8.0 | 22.5 | 0.00 | 0.48 | 0.30 | 27 | 1006.3 |
| 20260507174656 | 21 | 240 | 8.0 | 22.5 | 0.00 | 0.48 | 0.30 | 28 | 1006.3 |
| 20260507174157 | 20 | 308 | 8.0 | 20.9 | 0.00 | 0.48 | 0.30 | 29 | 1006.2 |
| 20260507173658 | 20 | 227 | 6.4 | 16.1 | 0.00 | 0.48 | 0.30 | 28 | 1006.2 |
| 20260507172657 | 20 | 330 | 8.0 | 17.7 | 0.00 | 0.48 | 0.30 | 30 | 1006.3 |
| 20260507172156 | 20 | 236 | 8.0 | 17.7 | 0.00 | 0.48 | 0.30 | 30 | 1006.2 |
| 20260507171657 | 19 | 336 | 8.0 | 16.1 | 0.00 | 0.48 | 0.30 | 31 | 1006.3 |
| 20260507171155 | 20 | 293 | 6.4 | 16.1 | 0.00 | 0.48 | 0.30 | 33 | 1006.3 |
| 20260507170655 | 20 | 229 | 8.0 | 17.7 | 0.00 | 0.48 | 0.30 | 33 | 1006.3 |
| 20260507165655 | 21 | 329 | 6.4 | 19.3 | 0.00 | 0.48 | 0.30 | 33 | 1006.5 |
| 20260507165155 | 20 | 309 | 8.0 | 19.3 | 0.00 | 0.48 | 0.30 | 33 | 1006.6 |
| 20260507164655 | 20 | 273 | 8.0 | 22.5 | 0.00 | 0.48 | 0.30 | 34 | 1006.6 |
| 20260507164152 | 20 | 339 | 6.4 | 22.5 | 0.00 | 0.48 | 0.30 | 35 | 1006.6 |
| 20260507163654 | 20 | 314 | 6.4 | 19.3 | 0.00 | 0.48 | 0.30 | 38 | 1006.7 |
| 20260507163154 | 19 | 18 | 6.4 | 19.3 | 0.00 | 0.48 | 0.30 | 39 | 1006.7 |
| 20260507162150 | 17 | 304 | 4.8 | 14.5 | 0.00 | 0.48 | 0.30 | 45 | 1006.8 |
| 20260507161149 | 17 | 267 | 8.0 | 20.9 | 0.00 | 0.48 | 0.30 | 44 | 1007.0 |
| 20260507160649 | 18 | 242 | 6.4 | 20.9 | 0.00 | 0.48 | 0.30 | 42 | 1007.1 |
| 20260507160146 | 19 | 273 | 4.8 | 17.7 | 0.00 | 0.48 | 0.30 | 42 | 1007.2 |
| 20260507155644 | 20 | 356 | 4.8 | 17.7 | 0.00 | 0.48 | 0.30 | 41 | 1007.1 |
| 20260507155144 | 19 | 238 | 4.8 | 17.7 | 0.00 | 0.48 | 0.30 | 44 | 1007.1 |
| 20260507154644 | 18 | 248 | 6.4 | 17.7 | 0.00 | 0.48 | 0.30 | 45 | 1007.2 |
| 20260507154145 | 18 | 327 | 4.8 | 17.7 | 0.00 | 0.48 | 0.30 | 45 | 1007.3 |
| 20260507153645 | 18 | 304 | 4.8 | 17.7 | 0.00 | 0.48 | 0.30 | 46 | 1007.4 |
| 20260507153145 | 17 | 337 | 4.8 | 12.9 | 0.00 | 0.48 | 0.30 | 47 | 1007.4 |
| 20260507152644 | 17 | 287 | 4.8 | 16.1 | 0.00 | 0.48 | 0.30 | 47 | 1007.4 |
| 20260507151644 | 18 | 5 | 6.4 | 17.7 | 0.00 | 0.48 | 0.30 | 45 | 1007.6 |
| 20260507151144 | 18 | 229 | 6.4 | 20.9 | 0.00 | 0.48 | 0.30 | 44 | 1007.5 |
| 20260507150644 | 18 | 294 | 4.8 | 20.9 | 0.00 | 0.48 | 0.30 | 44 | 1007.5 |
| 20260507150144 | 18 | 231 | 4.8 | 16.1 | 0.00 | 0.48 | 0.30 | 47 | 1007.6 |
| 20260507145645 | 17 | 285 | 4.8 | 16.1 | 0.00 | 0.48 | 0.30 | 48 | 1007.7 |
| 20260507145145 | 17 | 307 | 4.8 | 16.1 | 0.00 | 0.48 | 0.30 | 46 | 1007.7 |
| 20260507144644 | 17 | 288 | 4.8 | 16.1 | 0.00 | 0.48 | 0.30 | 45 | 1007.9 |
| 20260507144145 | 17 | 317 | 4.8 | 16.1 | 0.00 | 0.48 | 0.30 | 46 | 1007.9 |
| 20260507143143 | 19 | 229 | 3.2 | 12.9 | 0.00 | 0.48 | 0.30 | 43 | 1007.9 |
| 20260507142642 | 18 | 303 | 3.2 | 11.3 | 0.00 | 0.48 | 0.30 | 44 | 1007.9 |
| 20260507141143 | 18 | 314 | 6.4 | 16.1 | 0.00 | 0.48 | 0.30 | 46 | 1008.0 |
| 20260507140642 | 18 | 281 | 4.8 | 14.5 | 0.00 | 0.48 | 0.30 | 45 | 1008.0 |
| 20260507140143 | 18 | 320 | 4.8 | 14.5 | 0.00 | 0.48 | 0.30 | 46 | 1008.0 |
| 20260507135643 | 17 | 344 | 4.8 | 16.1 | 0.00 | 0.48 | 0.30 | 48 | 1008.0 |
| 20260507135143 | 17 | 327 | 6.4 | 16.1 | 0.00 | 0.48 | 0.30 | 50 | 1008.0 |
| 20260507134640 | 16 | 260 | 6.4 | 16.1 | 0.00 | 0.48 | 0.30 | 52 | 1008.0 |
| 20260507134140 | 16 | 313 | 4.8 | 14.5 | 0.00 | 0.48 | 0.30 | 51 | 1008.0 |
| 20260507133640 | 16 | 4 | 6.4 | 16.1 | 0.00 | 0.48 | 0.30 | 54 | 1007.9 |
| 20260507133140 | 16 | 321 | 8.0 | 16.1 | 0.00 | 0.48 | 0.30 | 55 | 1008.0 |
| 20260507132640 | 15 | 340 | 6.4 | 16.1 | 0.00 | 0.48 | 0.30 | 57 | 1008.0 |
| 20260507132141 | 15 | 346 | 4.8 | 16.1 | 0.00 | 0.48 | 0.30 | 59 | 1008.0 |
| 20260507130641 | 14 | 333 | 3.2 | 16.1 | 0.00 | 0.48 | 0.30 | 67 | 1008.3 |
| 20260507125638 | 13 | 339 | 3.2 | 16.1 | 0.00 | 0.48 | 0.30 | 71 | 1008.3 |
| 20260507124637 | 12 | 350 | 3.2 | 14.5 | 0.00 | 0.48 | 0.30 | 76 | 1008.5 |
| 20260507124137 | 12 | 328 | 3.2 | 12.9 | 0.00 | 0.48 | 0.30 | 76 | 1008.4 |
| 20260507123637 | 12 | 304 | 3.2 | 12.9 | 0.00 | 0.48 | 0.30 | 81 | 1008.5 |
| 20260507123139 | 11 | 335 | 3.2 | 12.9 | 0.00 | 0.48 | 0.30 | 83 | 1008.4 |
| 20260507122638 | 11 | 294 | 3.2 | 11.3 | 0.00 | 0.48 | 0.30 | 83 | 1008.4 |
| 20260507122137 | 11 | 298 | 3.2 | 11.3 | 0.00 | 0.48 | 0.30 | 84 | 1008.3 |
| 20260507121639 | 10 | 245 | 3.2 | 9.7 | 0.00 | 0.48 | 0.30 | 85 | 1008.3 |
| 20260507121138 | 10 | 275 | 1.6 | 11.3 | 0.00 | 0.48 | 0.30 | 86 | 1008.4 |
| 20260507120140 | 10 | 306 | 1.6 | 6.4 | 0.00 | 0.48 | 0.30 | 87 | 1008.2 |
| 20260507115639 | 10 | 310 | 3.2 | 6.4 | 0.00 | 0.48 | 0.30 | 87 | 1008.2 |
| 20260507115138 | 10 | 258 | 3.2 | 12.9 | 0.00 | 0.48 | 0.30 | 87 | 1008.3 |
| 20260507114635 | 10 | 298 | 1.6 | 12.9 | 0.00 | 0.48 | 0.30 | 87 | 1008.2 |
| 20260507114135 | 10 | 273 | 1.6 | 6.4 | 0.00 | 0.48 | 0.30 | 87 | 1008.2 |
| 20260507113636 | 10 | 275 | 1.6 | 6.4 | 0.00 | 0.48 | 0.30 | 87 | 1008.2 |
| 20260507112637 | 10 | 295 | 1.6 | 6.4 | 0.00 | 0.48 | 0.30 | 87 | 1008.1 |
| 20260507112137 | 10 | 318 | 1.6 | 6.4 | 0.00 | 0.48 | 0.30 | 87 | 1008.1 |
| 20260507111636 | 10 | 254 | 1.6 | 9.7 | 0.00 | 0.48 | 0.30 | 87 | 1008.1 |
| 20260507110636 | 10 | 311 | 1.6 | 4.8 | 0.03 | 0.48 | 0.30 | 87 | 1008.0 |
| 20260507110136 | 10 | 324 | 1.6 | 4.8 | 0.03 | 0.48 | 0.30 | 87 | 1007.8 |
| 20260507105637 | 10 | 269 | 1.6 | 6.4 | 0.03 | 0.48 | 0.30 | 87 | 1007.9 |
| 20260507105137 | 10 | 266 | 1.6 | 8.0 | 0.03 | 0.48 | 0.30 | 87 | 1008.0 |
| 20260507104636 | 10 | 262 | 1.6 | 8.0 | 0.05 | 0.48 | 0.30 | 87 | 1008.2 |
| 20260507104136 | 10 | 253 | 1.6 | 6.4 | 0.05 | 0.48 | 0.30 | 87 | 1008.3 |
| 20260507103638 | 10 | 252 | 1.6 | 6.4 | 0.08 | 0.48 | 0.30 | 87 | 1008.2 |
| 20260507103137 | 10 | 247 | 1.6 | 6.4 | 0.10 | 0.48 | 0.30 | 87 | 1008.3 |
| 20260507102636 | 10 | 248 | 1.6 | 6.4 | 0.10 | 0.48 | 0.30 | 87 | 1008.2 |
| 20260507102135 | 10 | 279 | 1.6 | 6.4 | 0.10 | 0.48 | 0.30 | 88 | 1007.7 |
| 20260507101635 | 10 | 271 | 1.6 | 4.8 | 0.13 | 0.48 | 0.30 | 88 | 1007.6 |
| 20260507101135 | 10 | 271 | 1.6 | 8.0 | 0.13 | 0.46 | 0.28 | 88 | 1007.7 |
| 20260507100636 | 10 | 291 | 1.6 | 8.0 | 0.18 | 0.46 | 0.28 | 88 | 1007.9 |
| 20260507100137 | 10 | 301 | 1.6 | 6.4 | 0.18 | 0.46 | 0.28 | 88 | 1007.7 |
| 20260507095635 | 10 | 324 | 1.6 | 6.4 | 0.20 | 0.46 | 0.28 | 88 | 1007.5 |
| 20260507095136 | 10 | 286 | 1.6 | 9.7 | 0.20 | 0.46 | 0.28 | 88 | 1007.4 |
| 20260507094636 | 10 | 303 | 1.6 | 9.7 | 0.18 | 0.43 | 0.25 | 88 | 1007.5 |
| 20260507094136 | 10 | 312 | 3.2 | 11.3 | 0.20 | 0.43 | 0.25 | 88 | 1007.6 |
| 20260507093136 | 10 | 352 | 4.8 | 12.9 | 0.15 | 0.38 | 0.20 | 87 | 1007.4 |
| 20260507092637 | 10 | 234 | 3.2 | 14.5 | 0.15 | 0.38 | 0.20 | 88 | 1007.4 |
| 20260507092133 | 10 | 310 | 3.2 | 14.5 | 0.15 | 0.38 | 0.20 | 87 | 1007.4 |
| 20260507091635 | 11 | 327 | 3.2 | 14.5 | 0.13 | 0.36 | 0.18 | 88 | 1007.4 |
| 20260507091133 | 11 | 314 | 1.6 | 11.3 | 0.13 | 0.33 | 0.15 | 87 | 1007.5 |
| 20260507090635 | 11 | 292 | 1.6 | 9.7 | 0.08 | 0.28 | 0.13 | 87 | 1007.6 |
| 20260507090131 | 11 | 224 | 1.6 | 8.0 | 0.08 | 0.28 | 0.10 | 87 | 1007.8 |
| 20260507085132 | 11 | 321 | 3.2 | 8.0 | 0.05 | 0.25 | 0.08 | 88 | 1007.6 |
| 20260507084627 | 11 | 289 | 3.2 | 8.0 | 0.05 | 0.25 | 0.08 | 87 | 1007.8 |
| 20260507084127 | 11 | 317 | 1.6 | 4.8 | 0.05 | 0.23 | 0.05 | 87 | 1007.7 |
| 20260507083628 | 11 | 267 | 1.6 | 4.8 | 0.05 | 0.23 | 0.05 | 87 | 1007.3 |
| 20260507082624 | 11 | 250 | 0.0 | 4.8 | 0.05 | 0.23 | 0.05 | 87 | 1007.3 |
| 20260507082124 | 11 | 290 | 1.6 | 4.8 | 0.05 | 0.23 | 0.05 | 86 | 1007.2 |
| 20260507081123 | 11 | 258 | 3.2 | 14.5 | 0.03 | 0.20 | 0.03 | 86 | 1007.1 |
| 20260507080625 | 11 | 258 | 3.2 | 14.5 | 0.03 | 0.20 | 0.03 | 86 | 1007.6 |
| 20260507080121 | 12 | 247 | 3.2 | 11.3 | 0.03 | 0.20 | 0.03 | 86 | 1007.4 |
| 20260507075621 | 12 | 319 | 3.2 | 12.9 | 0.03 | 0.20 | 0.03 | 86 | 1007.2 |
| 20260507075123 | 12 | 281 | 3.2 | 12.9 | 0.03 | 0.20 | 0.03 | 86 | 1007.1 |
| 20260507074622 | 12 | 261 | 3.2 | 11.3 | 0.03 | 0.20 | 0.03 | 85 | 1006.8 |
| 20260507074119 | 12 | 285 | 3.2 | 11.3 | 0.00 | 0.18 | 0.00 | 85 | 1007.0 |
| 20260507073619 | 12 | 304 | 1.6 | 12.9 | 0.00 | 0.18 | 0.00 | 85 | 1007.1 |
| 20260507073117 | 12 | 306 | 1.6 | 12.9 | 0.00 | 0.18 | 0.00 | 84 | 1007.0 |
| 20260507072618 | 12 | 288 | 1.6 | 11.3 | 0.00 | 0.18 | 0.00 | 84 | 1006.6 |
| 20260507072118 | 12 | 318 | 3.2 | 14.5 | 0.00 | 0.18 | 0.00 | 84 | 1006.2 |
| 20260507071618 | 12 | 317 | 3.2 | 16.1 | 0.00 | 0.18 | 0.00 | 84 | 1006.2 |
| 20260507071118 | 12 | 302 | 3.2 | 16.1 | 0.00 | 0.18 | 0.00 | 84 | 1006.2 |
| 20260507070619 | 13 | 325 | 3.2 | 11.3 | 0.00 | 0.18 | 0.00 | 85 | 1006.4 |
| 20260507065118 | 13 | 317 | 1.6 | 9.7 | 0.00 | 0.18 | 0.00 | 85 | 1006.3 |
| 20260507064617 | 13 | 274 | 3.2 | 11.3 | 0.00 | 0.18 | 0.00 | 85 | 1006.4 |
| 20260507064116 | 13 | 331 | 3.2 | 14.5 | 0.00 | 0.18 | 0.00 | 84 | 1006.5 |
| 20260507063115 | 13 | 279 | 1.6 | 9.7 | 0.00 | 0.18 | 0.00 | 84 | 1006.5 |
| 20260507062115 | 13 | 275 | 1.6 | 6.4 | 0.00 | 0.18 | 0.00 | 84 | 1006.4 |
| 20260507061617 | 13 | 285 | 3.2 | 9.7 | 0.00 | 0.18 | 0.00 | 84 | 1006.2 |
| 20260507061115 | 13 | 274 | 4.8 | 14.5 | 0.00 | 0.18 | 0.00 | 84 | 1006.1 |
| 20260507060615 | 13 | 347 | 3.2 | 14.5 | 0.00 | 0.18 | 0.00 | 84 | 1006.3 |
| 20260507060116 | 13 | 273 | 3.2 | 9.7 | 0.00 | 0.18 | 0.00 | 84 | 1006.5 |
| 20260507055616 | 13 | 311 | 3.2 | 9.7 | 0.00 | 0.18 | 0.00 | 84 | 1006.4 |
| 20260507055112 | 13 | 333 | 3.2 | 16.1 | 0.00 | 0.18 | 0.00 | 85 | 1006.4 |
| 20260507054613 | 13 | 287 | 3.2 | 16.1 | 0.00 | 0.18 | 0.00 | 85 | 1006.5 |
| 20260507053114 | 14 | 229 | 3.2 | 12.9 | 0.00 | 0.18 | 0.00 | 86 | 1006.6 |
| 20260507052614 | 14 | 279 | 3.2 | 9.7 | 0.00 | 0.18 | 0.00 | 86 | 1006.6 |
| 20260507052112 | 14 | 290 | 3.2 | 14.5 | 0.00 | 0.18 | 0.00 | 86 | 1006.5 |
| 20260507051611 | 14 | 301 | 4.8 | 16.1 | 0.00 | 0.18 | 0.00 | 86 | 1006.3 |
| 20260507051112 | 14 | 331 | 3.2 | 16.1 | 0.00 | 0.18 | 0.00 | 87 | 1006.3 |
| 20260507050611 | 15 | 308 | 3.2 | 9.7 | 0.00 | 0.18 | 0.00 | 88 | 1006.4 |
| 20260507050113 | 15 | 280 | 3.2 | 17.7 | 0.00 | 0.18 | 0.00 | 89 | 1006.4 |
| 20260507045610 | 15 | 285 | 4.8 | 19.3 | 0.00 | 0.18 | 0.00 | 89 | 1006.4 |
| 20260507045111 | 15 | 253 | 4.8 | 19.3 | 0.03 | 0.18 | 0.00 | 89 | 1006.4 |
| 20260507044611 | 15 | 327 | 4.8 | 12.9 | 0.03 | 0.18 | 0.00 | 89 | 1006.4 |
| 20260507044109 | 15 | 344 | 3.2 | 12.9 | 0.03 | 0.18 | 0.00 | 90 | 1006.4 |
| 20260507043609 | 15 | 271 | 3.2 | 12.9 | 0.03 | 0.18 | 0.00 | 91 | 1006.2 |
| 20260507042607 | 15 | 269 | 3.2 | 11.3 | 0.03 | 0.18 | 0.00 | 91 | 1006.2 |
| 20260507042106 | 15 | 267 | 3.2 | 12.9 | 0.03 | 0.18 | 0.00 | 91 | 1006.3 |
| 20260507041605 | 15 | 250 | 3.2 | 12.9 | 0.03 | 0.18 | 0.00 | 91 | 1006.4 |
| 20260507040604 | 15 | 252 | 3.2 | 14.5 | 0.03 | 0.18 | 0.00 | 91 | 1006.5 |
| 20260507040104 | 15 | 273 | 3.2 | 14.5 | 0.03 | 0.18 | 0.00 | 91 | 1006.6 |
| 20260507035606 | 15 | 261 | 3.2 | 11.3 | 0.03 | 0.18 | 0.18 | 91 | 1006.7 |
| 20260507035103 | 15 | 252 | 3.2 | 11.3 | 0.00 | 0.15 | 0.15 | 91 | 1006.6 |
| 20260507034602 | 15 | 261 | 4.8 | 17.7 | 0.00 | 0.15 | 0.15 | 91 | 1006.5 |
| 20260507034100 | 15 | 0 | 4.8 | 17.7 | 0.00 | 0.15 | 0.15 | 91 | 1006.4 |
| 20260507033601 | 15 | 230 | 4.8 | 14.5 | 0.00 | 0.15 | 0.15 | 91 | 1006.3 |
| 20260507032600 | 15 | 246 | 4.8 | 22.5 | 0.00 | 0.15 | 0.15 | 91 | 1006.2 |
| 20260507032100 | 15 | 252 | 4.8 | 16.1 | 0.00 | 0.15 | 0.15 | 91 | 1006.1 |
| 20260507031600 | 15 | 222 | 4.8 | 19.3 | 0.00 | 0.15 | 0.15 | 91 | 1006.0 |
| 20260507031102 | 15 | 230 | 4.8 | 19.3 | 0.00 | 0.15 | 0.15 | 91 | 1005.9 |
| 20260507030601 | 15 | 223 | 3.2 | 14.5 | 0.00 | 0.15 | 0.15 | 91 | 1005.8 |
| 20260507030101 | 15 | 263 | 4.8 | 16.1 | 0.00 | 0.15 | 0.15 | 91 | 1005.8 |
| 20260507025559 | 15 | 236 | 4.8 | 16.1 | 0.00 | 0.15 | 0.15 | 91 | 1005.7 |
| 20260507024558 | 15 | 252 | 4.8 | 22.5 | 0.00 | 0.15 | 0.15 | 91 | 1005.9 |
| 20260507024058 | 15 | 265 | 4.8 | 22.5 | 0.00 | 0.15 | 0.15 | 91 | 1006.1 |
| 20260507023058 | 15 | 216 | 3.2 | 11.3 | 0.00 | 0.15 | 0.15 | 91 | 1006.0 |
| 20260507022559 | 15 | 192 | 3.2 | 11.3 | 0.00 | 0.15 | 0.15 | 91 | 1005.9 |
| 20260507022058 | 15 | 303 | 3.2 | 14.5 | 0.00 | 0.15 | 0.15 | 91 | 1005.9 |
| 20260507021558 | 15 | 255 | 3.2 | 14.5 | 0.00 | 0.15 | 0.15 | 91 | 1005.9 |
| 20260507020559 | 15 | 206 | 3.2 | 16.1 | 0.00 | 0.15 | 0.15 | 91 | 1006.1 |
| 20260507020057 | 15 | 178 | 4.8 | 16.1 | 0.00 | 0.15 | 0.15 | 91 | 1005.8 |
| 20260507015557 | 15 | 187 | 3.2 | 16.1 | 0.00 | 0.15 | 0.15 | 91 | 1005.8 |
| 20260507015057 | 15 | 195 | 4.8 | 12.9 | 0.00 | 0.15 | 0.15 | 91 | 1006.0 |
| 20260507014557 | 15 | 211 | 4.8 | 12.9 | 0.00 | 0.15 | 0.15 | 91 | 1006.0 |
| 20260507014054 | 15 | 194 | 4.8 | 12.9 | 0.00 | 0.15 | 0.15 | 91 | 1006.0 |
| 20260507013555 | 15 | 172 | 4.8 | 16.1 | 0.00 | 0.15 | 0.15 | 91 | 1006.1 |
| 20260507013053 | 15 | 200 | 6.4 | 20.9 | 0.00 | 0.15 | 0.15 | 91 | 1006.1 |
| 20260507012555 | 15 | 192 | 4.8 | 20.9 | 0.00 | 0.15 | 0.15 | 91 | 1006.1 |
| 20260507012053 | 15 | 202 | 4.8 | 19.3 | 0.00 | 0.15 | 0.15 | 91 | 1006.2 |
| 20260507011553 | 14 | 185 | 4.8 | 16.1 | 0.00 | 0.15 | 0.15 | 91 | 1006.3 |
| 20260507010553 | 14 | 226 | 4.8 | 17.7 | 0.00 | 0.15 | 0.15 | 91 | 1006.4 |
| 20260507005550 | 14 | 211 | 6.4 | 19.3 | 0.00 | 0.15 | 0.15 | 91 | 1006.5 |
| 20260507005051 | 14 | 215 | 6.4 | 19.3 | 0.00 | 0.15 | 0.15 | 91 | 1006.5 |
| 20260507004549 | 14 | 132 | 6.4 | 20.9 | 0.03 | 0.15 | 0.15 | 91 | 1006.4 |
| 20260507004049 | 14 | 188 | 6.4 | 20.9 | 0.03 | 0.15 | 0.15 | 90 | 1006.3 |
| 20260507003550 | 14 | 193 | 4.8 | 16.1 | 0.03 | 0.15 | 0.15 | 90 | 1006.4 |
| 20260507003048 | 14 | 184 | 6.4 | 14.5 | 0.03 | 0.15 | 0.15 | 90 | 1006.4 |
| 20260507002547 | 14 | 213 | 6.4 | 16.1 | 0.03 | 0.15 | 0.15 | 90 | 1006.4 |
| 20260507002048 | 14 | 196 | 6.4 | 17.7 | 0.05 | 0.15 | 0.15 | 90 | 1006.3 |
| 20260507001548 | 15 | 144 | 6.4 | 17.7 | 0.05 | 0.15 | 0.15 | 90 | 1006.3 |
| 20260507001049 | 15 | 231 | 4.8 | 14.5 | 0.05 | 0.15 | 0.15 | 90 | 1006.2 |
| 20260507000548 | 15 | 237 | 4.8 | 14.5 | 0.05 | 0.15 | 0.15 | 90 | 1006.1 |
| 20260507000048 | 15 | 159 | 6.4 | 20.9 | 0.05 | 0.15 | 0.15 | 90 | 1006.0 |
| 20260506235548 | 15 | 229 | 6.4 | 27.4 | 0.05 | 0.15 | 0.15 | 90 | 1006.1 |
| 20260506234546 | 15 | 202 | 8.0 | 22.5 | 0.03 | 0.13 | 0.13 | 90 | 1006.2 |
| 20260506234046 | 15 | 236 | 8.0 | 22.5 | 0.03 | 0.13 | 0.13 | 89 | 1006.0 |
| 20260506233546 | 15 | 244 | 8.0 | 20.9 | 0.03 | 0.13 | 0.13 | 89 | 1006.0 |
| 20260506233046 | 15 | 220 | 6.4 | 25.7 | 0.03 | 0.13 | 0.13 | 89 | 1005.9 |
| 20260506232546 | 15 | 155 | 6.4 | 25.7 | 0.03 | 0.13 | 0.13 | 89 | 1006.0 |
| 20260506232048 | 15 | 136 | 6.4 | 17.7 | 0.00 | 0.10 | 0.13 | 89 | 1006.0 |
| 20260506231546 | 15 | 154 | 6.4 | 17.7 | 0.00 | 0.10 | 0.10 | 89 | 1006.0 |
| 20260506231047 | 15 | 234 | 6.4 | 16.1 | 0.00 | 0.10 | 0.10 | 88 | 1006.0 |
| 20260506230546 | 15 | 140 | 6.4 | 17.7 | 0.00 | 0.10 | 0.10 | 88 | 1006.0 |
| 20260506230046 | 15 | 186 | 8.0 | 17.7 | 0.03 | 0.10 | 0.10 | 88 | 1006.1 |
| 20260506225546 | 15 | 230 | 8.0 | 17.7 | 0.03 | 0.10 | 0.10 | 88 | 1006.0 |
| 20260506225048 | 15 | 218 | 6.4 | 14.5 | 0.03 | 0.10 | 0.10 | 88 | 1006.1 |
| 20260506224546 | 16 | 179 | 4.8 | 12.9 | 0.03 | 0.10 | 0.10 | 88 | 1006.1 |
| 20260506224046 | 16 | 222 | 6.4 | 16.1 | 0.03 | 0.10 | 0.10 | 87 | 1006.3 |
| 20260506223547 | 16 | 227 | 6.4 | 17.7 | 0.03 | 0.10 | 0.10 | 87 | 1006.2 |
| 20260506223045 | 16 | 182 | 6.4 | 17.7 | 0.03 | 0.10 | 0.10 | 87 | 1006.3 |
| 20260506222548 | 16 | 185 | 4.8 | 17.7 | 0.03 | 0.10 | 0.10 | 87 | 1006.4 |
| 20260506222046 | 16 | 217 | 4.8 | 17.7 | 0.03 | 0.10 | 0.10 | 87 | 1006.5 |
| 20260506221546 | 16 | 198 | 4.8 | 16.1 | 0.03 | 0.10 | 0.10 | 87 | 1006.5 |
| 20260506221046 | 16 | 189 | 6.4 | 16.1 | 0.03 | 0.10 | 0.10 | 86 | 1006.5 |
| 20260506220546 | 16 | 137 | 6.4 | 17.7 | 0.03 | 0.10 | 0.10 | 86 | 1006.5 |
| 20260506220046 | 16 | 229 | 6.4 | 17.7 | 0.00 | 0.08 | 0.08 | 86 | 1006.6 |
| 20260506215545 | 16 | 209 | 8.0 | 25.7 | 0.03 | 0.08 | 0.08 | 85 | 1006.7 |
| 20260506214547 | 16 | 158 | 6.4 | 16.1 | 0.03 | 0.08 | 0.08 | 84 | 1007.0 |
| 20260506214045 | 17 | 221 | 6.4 | 17.7 | 0.03 | 0.08 | 0.08 | 84 | 1007.0 |
| 20260506213544 | 17 | 182 | 6.4 | 22.5 | 0.03 | 0.08 | 0.08 | 84 | 1007.1 |
| 20260506213043 | 17 | 242 | 8.0 | 22.5 | 0.03 | 0.08 | 0.08 | 84 | 1007.0 |
| 20260506212544 | 17 | 215 | 8.0 | 29.0 | 0.03 | 0.08 | 0.08 | 83 | 1007.0 |